Temp
51 52 53 53 54 53 53 53 54 54 53 52 52 53 53 55 56 57 57 57 57 57 57 57 57 57 56 55 55 56 56 56 57 57 58 58 57 56 55 54 55 55 55 56 56 57 57 57 55 54 52 51 50 49 48 47 49 50 50 51 51 50 50 51 51 51 52 53 53
51 51 52 54 55 54 54 54 54 54 53 53 52 52 53 55 56 57 57 57 57 57 57 58 57 56 56 56 55 54 54 54 54 54 54 54 53 53 53 52 53 53 54 57 57 57 55 53 52 51 50 48 48 48 47 47 47 48 49 49 49 49 50 51 51 51 51 51 50
51 51 52 53 53 53 54 54 54 53 52 52 52 53 54 55 56 56 57 57 57 57 58 57 57 56 56 56 56 56 55 55 54 54 53 53 52 52 52 52 52 54 55 56 55 54 52 51 51 51 50 49 49 48 48 46 46 47 48 48 48 48 49 50 48 47 47 47 47
50 50 51 51 50 49 50 53 51 51 52 53 53 54 55 56 56 56 56 55 57 57 58 57 57 56 56 56 55 55 55 55 54 53 53 52 51 51 51 52 52 52 52 52 51 51 51 50 51 50 50 49 48 49 49 48 47 47 47 47 48 48 48 47 46 46 45 45 44
49 49 50 50 49 49 49 49 50 51 52 53 54 55 55 55 55 55 55 56 56 56 57 57 56 56 55 55 54 54 54 54 54 53 53 52 51 51 51 51 51 51 51 51 51 51 51 51 50 50 49 49 49 50 50 50 49 48 48 47 47 46 46 45 45 44 43 43 42
48 48 48 49 49 49 50 50 50 50 51 53 53 53 53 54 54 54 54 54 54 54 55 56 56 56 55 55 54 54 53 53 53 53 53 52 52 52 52 52 52 52 51 51 51 51 51 51 51 50 50 50 50 49 49 49 48 48 47 46 46 45 44 44 43 43 42 42 41
47 48 48 49 49 49 50 49 50 50 51 52 51 50 50 51 51 51 51 52 52 53 54 55 54 54 55 54 54 54 54 53 53 52 52 52 52 52 52 52 52 52 51 51 51 51 50 50 51 51 50 50 49 49 48 48 47 47 46 45 44 44 43 42 42 42 41 40 40
47 47 47 48 48 49 49 49 50 50 51 51 50 49 49 49 49 49 50 50 51 51 52 52 52 52 52 53 53 54 53 53 53 52 52 52 51 51 51 51 51 51 51 51 51 51 50 50 50 50 49 49 48 48 47 46 46 45 44 43 43 43 42 42 41 41 40 40 40
47 47 47 47 48 48 48 48 49 49 49 49 48 48 48 48 48 48 48 49 49 49 50 50 50 50 50 50 51 52 52 53 52 52 51 51 51 50 50 50 50 49 49 50 50 49 49 49 48 48 48 48 47 46 46 46 45 44 43 43 42 42 42 42 41 40 39 39 39
45 46 46 47 47 47 47 48 48 48 48 47 47 47 48 48 48 47 47 47 48 48 48 48 48 49 49 49 49 50 51 52 52 51 51 50 50 49 49 48 48 48 48 48 48 48 48 47 47 46 46 46 45 45 45 45 44 43 42 42 42 42 42 42 41 39 39 38 38
44 44 45 46 46 46 47 47 47 47 47 46 46 46 47 47 46 46 46 46 47 46 46 46 47 47 48 48 48 48 49 50 50 50 49 48 47 47 46 46 46 46 46 47 47 47 47 46 45 45 45 44 44 44 44 44 43 42 41 41 41 41 41 41 40 39 39 38 38
43 43 44 44 45 45 46 46 46 46 45 45 45 45 45 45 45 45 45 45 45 45 45 45 46 46 47 47 47 47 48 48 48 47 47 47 46 45 45 45 45 45 45 45 45 45 45 45 45 44 43 43 43 43 43 42 42 41 41 40 40 40 40 40 39 39 38 38 38
42 43 43 44 44 44 45 45 45 45 44 44 44 44 44 44 44 45 45 44 45 45 45 45 46 46 46 46 45 46 46 46 46 45 46 46 45 45 45 45 45 44 44 44 44 44 44 44 44 43 43 42 42 42 41 41 41 40 40 40 40 39 39 39 38 38 37 37 37
42 42 43 43 43 44 44 44 44 44 43 43 43 43 43 43 44 44 44 44 44 44 45 45 46 46 45 44 44 44 44 45 45 44 44 45 45 45 45 44 43 43 43 43 42 42 42 42 42 42 41 41 40 40 40 40 40 39 39 39 39 39 38 38 37 37 37 37 37
42 42 42 42 42 43 43 42 43 42 42 42 42 42 42 43 44 44 44 43 43 44 45 45 47 46 45 44 44 44 44 44 43 43 43 43 44 43 42 41 41 41 42 41 41 41 41 40 39 39 39 40 39 39 39 39 39 38 38 38 38 38 38 37 37 37 37 36 36
41 41 41 41 41 41 41 41 42 41 41 41 41 41 42 42 42 43 43 42 43 44 45 45 46 46 46 46 46 46 45 44 44 43 42 42 41 41 41 40 41 41 41 41 40 40 40 39 37 37 38 39 39 39 39 39 38 38 38 38 38 38 38 38 37 37 37 37 37
40 40 40 40 40 40 40 40 40 40 40 40 40 41 41 41 42 42 43 43 43 44 44 44 45 45 46 46 46 46 45 44 44 43 42 41 41 41 41 41 41 41 41 40 40 40 40 39 38 38 38 39 39 39 39 39 39 39 38 38 38 38 38 38 38 37 37 37 37
39 39 39 39 39 39 39 39 39 39 39 39 40 40 41 42 41 42 42 44 44 43 43 42 43 44 45 44 45 44 44 42 42 42 42 42 42 42 42 41 41 41 41 41 41 41 40 40 40 40 40 40 40 40 40 39 39 39 39 38 38 38 38 38 37 37 37 36 37
38 38 38 38 38 38 38 39 39 38 38 39 39 40 40 42 42 42 42 43 44 43 43 42 43 43 44 43 43 43 43 42 42 42 42 42 42 42 41 41 41 41 41 41 41 40 40 40 40 40 40 40 40 40 39 39 39 39 39 38 38 38 38 38 37 37 36 36 36
39 39 39 38 38 38 38 38 38 38 39 39 39 40 41 42 43 43 42 43 44 44 43 43 43 43 43 43 42 42 42 42 42 42 42 42 41 41 41 41 41 41 41 41 40 40 40 40 40 40 39 39 39 39 39 39 39 38 38 38 38 38 38 38 37 37 36 36 36
42 42 42 41 40 39 39 39 39 40 40 40 40 41 42 43 43 43 43 43 43 43 43 42 42 42 42 42 42 42 42 42 42 41 41 41 41 40 40 40 40 41 41 40 40 40 40 39 39 39 39 39 39 38 38 38 38 38 37 37 37 37 38 37 37 37 37 36 36
43 43 43 42 41 41 41 41 41 42 42 42 42 43 43 43 43 43 43 43 43 42 42 41 41 41 41 41 41 41 41 42 41 41 41 40 39 39 38 38 38 39 39 40 40 40 40 40 39 39 39 38 38 38 38 37 37 37 36 36 36 37 37 37 36 36 36 37 37
42 42 42 42 42 42 42 42 42 42 42 42 42 43 43 43 43 43 43 43 43 42 42 41 41 41 41 41 41 41 41 41 40 40 38 37 36 36 36 36 36 37 38 39 38 38 39 39 39 38 38 37 36 36 36 36 36 35 35 35 36 36 35 35 35 35 35 36 37
43 43 43 43 43 43 43 43 43 42 42 42 42 42 43 43 43 43 43 42 42 42 42 42 41 41 41 41 41 40 40 40 40 39 38 36 35 35 35 35 35 36 37 37 38 38 38 39 38 37 36 36 35 35 35 35 35 35 35 35 35 35 34 34 34 34 35 35 36
43 43 43 43 43 43 43 43 42 42 42 42 42 42 42 42 42 42 42 42 42 42 42 42 41 41 41 41 40 39 38 39 39 39 39 39 38 38 38 39 39 40 41 41 42 42 41 40 38 36 35 35 35 36 36 36 36 35 35 35 35 34 34 34 34 33 33 34 34
42 43 43 43 43 42 42 42 42 42 42 42 42 42 42 42 42 42 42 42 41 41 41 41 41 42 42 41 40 39 39 39 39 39 40 41 41 41 41 41 42 42 42 44 44 43 42 42 40 38 36 35 36 36 36 35 35 35 34 34 33 33 33 33 33 33 33 33 33
42 42 42 42 42 42 42 41 42 41 41 41 41 41 42 42 42 42 41 41 41 41 41 41 41 42 42 41 41 41 40 40 40 39 39 39 40 40 40 40 41 42 43 44 45 44 43 42 41 39 37 35 35 35 35 34 34 34 33 33 33 32 32 32 32 32 33 33 33
41 41 41 41 41 41 41 41 41 41 41 41 41 41 41 42 41 41 41 40 40 40 40 40 41 41 41 40 40 40 40 40 40 40 40 40 40 41 40 40 39 41 43 45 45 44 43 42 41 40 38 36 35 34 34 34 34 33 33 33 32 32 32 32 32 32 32 32 32
40 40 40 40 40 40 40 40 40 41 41 41 41 41 41 41 40 40 40 39 39 39 39 39 40 40 39 39 39 39 39 40 40 40 40 40 40 40 40 40 41 42 44 45 44 44 43 42 41 40 39 37 35 34 33 33 33 32 32 32 32 32 32 31 32 31 31 31 31
39 39 39 39 39 40 40 40 40 40 40 41 41 40 40 40 39 39 39 38 38 38 39 39 39 39 38 38 39 39 39 39 39 39 39 39 40 40 40 41 41 42 43 45 44 43 43 42 41 40 39 37 34 32 31 31 31 31 31 31 31 31 31 30 30 30 29 29 29
38 38 38 39 39 39 39 39 40 40 40 40 40 39 39 39 38 38 38 38 38 38 39 38 38 38 38 38 38 38 38 38 38 38 39 39 39 39 39 40 40 41 43 44 44 43 42 42 41 40 39 37 34 30 28 28 29 30 30 31 31 30 30 29 29 29 29 29 29
39 38 38 38 38 39 39 39 39 39 39 39 39 39 38 38 38 38 38 38 38 38 37 37 37 37 37 37 37 37 37 37 38 38 38 39 39 39 39 39 39 41 43 44 43 43 42 41 40 39 38 37 33 30 28 28 28 28 28 29 29 29 29 29 29 29 29 29 29
38 38 38 38 38 38 38 39 39 39 39 38 38 38 38 37 37 37 37 37 37 37 36 36 36 36 36 36 36 36 37 37 38 38 38 38 38 38 39 39 39 41 43 43 43 42 42 41 40 39 38 37 33 30 28 29 29 29 29 29 29 28 28 28 28 28 27 26 25
38 38 38 38 38 38 38 38 38 38 38 38 37 37 37 37 37 37 37 37 36 36 36 35 35 35 35 35 36 36 36 37 37 37 37 37 38 38 38 38 39 41 42 43 42 42 41 40 40 39 38 37 33 30 29 30 30 30 29 29 28 27 25 24 23 22 21 21 21
38 38 37 37 37 37 38 38 37 37 37 37 37 37 36 36 36 36 36 36 35 35 34 34 34 34 34 34 35 35 35 35 35 35 36 36 36 37 37 37 38 40 42 42 42 41 41 40 39 39 37 35 30 28 27 27 26 25 24 23 23 21 20 19 19 19 19 19 19
37 37 37 37 37 37 37 37 37 36 36 36 36 36 35 35 35 35 35 36 34 34 33 33 33 32 32 32 33 33 33 33 33 34 34 34 33 33 33 34 34 37 41 42 41 41 41 40 40 38 35 30 25 23 22 21 20 19 19 19 19 19 19 18 18 18 18 18 19
36 36 36 36 36 36 36 36 36 35 35 35 35 34 34 34 34 34 34 34 33 32 32 32 32 31 31 30 31 31 31 30 30 31 31 30 28 27 27 27 27 32 39 42 42 41 41 40 40 37 33 25 21 19 18 18 17 17 17 18 18 17 17 17 18 18 18 19 21
35 35 35 35 35 35 35 34 34 34 34 34 34 34 34 33 33 33 33 33 31 31 31 30 30 29 29 28 28 28 27 26 26 26 25 24 23 23 23 24 23 28 34 41 42 41 41 41 40 37 32 23 19 18 18 18 17 17 17 17 17 17 17 17 17 17 18 21 28
34 34 34 34 34 34 34 33 33 33 33 33 33 33 33 33 33 33 32 29 27 27 28 27 26 26 27 27 25 24 23 22 22 23 22 21 23 25 26 23 22 25 30 40 42 42 41 41 40 38 33 24 19 18 18 18 18 17 17 17 17 17 17 17 16 17 18 20 31
34 34 34 33 33 33 33 33 33 33 33 33 33 33 33 33 33 32 29 26 24 24 23 23 23 24 25 27 23 22 22 21 20 20 22 23 25 29 29 23 21 22 27 37 42 43 42 42 41 38 33 23 19 17 18 18 18 18 17 16 16 17 17 17 16 16 17 18 24
34 34 34 33 33 33 33 33 33 33 32 33 33 33 33 33 32 29 26 24 23 23 22 22 22 23 24 26 23 21 21 22 21 20 21 23 24 27 27 23 21 21 24 33 41 43 42 42 40 38 33 24 19 17 18 18 19 19 18 17 16 16 16 16 16 16 16 16 17
MSLP
1016.73 1016.61 1016.49 1016.37 1016.25 1016.13 1016.05 1015.97 1015.85 1015.73 1015.65 1015.57 1015.53 1015.45 1015.33 1015.25 1015.21 1015.17 1015.13 1015.01 1014.93 1014.89 1014.85 1014.81 1014.73 1014.69 1014.69 1014.65 1014.65 1014.73 1014.73 1014.77 1014.85 1014.97 1014.97 1014.97 1015.29 1015.69 1016.01 1016.13 1016.13 1015.97 1015.85 1015.93 1016.13 1016.29 1016.45 1016.57 1016.69 1016.81 1016.89 1017.01 1017.13 1017.29 1017.41 1017.45 1017.57 1017.65 1017.81 1017.97 1018.09 1018.21 1018.29 1018.41 1018.45 1018.53 1018.57 1018.57 1018.57
1016.89 1016.73 1016.57 1016.45 1016.29 1016.13 1016.05 1015.97 1015.89 1015.77 1015.69 1015.57 1015.57 1015.49 1015.45 1015.33 1015.29 1015.29 1015.21 1015.17 1015.09 1015.01 1014.97 1014.93 1014.89 1014.85 1014.85 1014.85 1014.89 1014.97 1015.01 1015.09 1015.17 1015.21 1015.29 1015.29 1015.49 1015.73 1015.93 1016.05 1016.01 1015.89 1015.85 1015.97 1016.13 1016.29 1016.45 1016.57 1016.73 1016.85 1017.01 1017.17 1017.29 1017.45 1017.57 1017.65 1017.73 1017.81 1017.97 1018.09 1018.21 1018.29 1018.37 1018.45 1018.45 1018.57 1018.61 1018.69 1018.77
1017.09 1016.89 1016.73 1016.57 1016.45 1016.33 1016.21 1016.13 1016.05 1015.97 1015.85 1015.73 1015.65 1015.57 1015.49 1015.45 1015.41 1015.41 1015.41 1015.37 1015.25 1015.13 1015.13 1015.13 1015.09 1015.05 1015.05 1015.05 1015.05 1015.13 1015.21 1015.29 1015.37 1015.45 1015.53 1015.65 1015.85 1015.97 1016.01 1016.01 1016.01 1016.01 1016.05 1016.17 1016.33 1016.49 1016.61 1016.77 1016.85 1017.01 1017.21 1017.37 1017.49 1017.61 1017.73 1017.85 1017.89 1018.01 1018.13 1018.29 1018.33 1018.45 1018.53 1018.65 1018.73 1018.81 1018.89 1018.97 1019.05
1017.25 1017.09 1016.93 1016.81 1016.65 1016.57 1016.49 1016.37 1016.29 1016.13 1016.01 1015.85 1015.73 1015.65 1015.61 1015.57 1015.57 1015.57 1015.57 1015.49 1015.41 1015.33 1015.33 1015.37 1015.33 1015.29 1015.29 1015.33 1015.37 1015.41 1015.45 1015.57 1015.61 1015.73 1015.81 1015.93 1016.05 1016.13 1016.13 1016.13 1016.21 1016.33 1016.45 1016.57 1016.65 1016.73 1016.85 1017.01 1017.13 1017.33 1017.49 1017.61 1017.73 1017.85 1017.93 1018.01 1018.09 1018.21 1018.33 1018.45 1018.57 1018.65 1018.73 1018.85 1018.93 1019.01 1019.09 1019.17 1019.29
1017.41 1017.25 1017.13 1016.97 1016.85 1016.73 1016.57 1016.49 1016.41 1016.29 1016.21 1016.05 1015.93 1015.85 1015.85 1015.85 1015.85 1015.77 1015.73 1015.65 1015.73 1015.73 1015.69 1015.61 1015.61 1015.65 1015.65 1015.65 1015.69 1015.73 1015.81 1015.85 1015.89 1015.97 1016.05 1016.13 1016.25 1016.29 1016.29 1016.29 1016.45 1016.57 1016.69 1016.73 1016.81 1016.89 1017.01 1017.13 1017.37 1017.57 1017.77 1017.85 1018.01 1018.09 1018.09 1018.13 1018.21 1018.37 1018.53 1018.61 1018.73 1018.85 1018.93 1019.01 1019.09 1019.17 1019.25 1019.29 1019.45
1017.61 1017.45 1017.29 1017.13 1016.97 1016.85 1016.73 1016.65 1016.57 1016.49 1016.37 1016.29 1016.25 1016.21 1016.17 1016.17 1016.13 1016.05 1016.01 1016.05 1016.05 1016.05 1015.97 1015.89 1015.85 1015.85 1015.89 1015.93 1015.97 1016.01 1016.09 1016.17 1016.21 1016.25 1016.29 1016.41 1016.45 1016.45 1016.53 1016.61 1016.69 1016.81 1016.89 1016.97 1017.01 1017.05 1017.13 1017.29 1017.45 1017.61 1017.81 1017.93 1018.13 1018.21 1018.29 1018.33 1018.41 1018.53 1018.69 1018.85 1018.93 1019.01 1019.09 1019.17 1019.25 1019.29 1019.37 1019.45 1019.57
1017.81 1017.61 1017.45 1017.29 1017.13 1017.01 1016.93 1016.85 1016.73 1016.65 1016.57 1016.53 1016.57 1016.57 1016.57 1016.53 1016.45 1016.41 1016.37 1016.37 1016.29 1016.25 1016.21 1016.17 1016.17 1016.13 1016.13 1016.13 1016.17 1016.25 1016.33 1016.45 1016.49 1016.57 1016.61 1016.69 1016.73 1016.73 1016.77 1016.85 1016.93 1017.05 1017.17 1017.21 1017.21 1017.29 1017.33 1017.45 1017.57 1017.73 1017.85 1018.01 1018.17 1018.37 1018.45 1018.53 1018.57 1018.73 1018.85 1019.01 1019.13 1019.17 1019.25 1019.29 1019.33 1019.41 1019.45 1019.53 1019.57
1017.85 1017.73 1017.61 1017.49 1017.33 1017.25 1017.13 1017.05 1016.93 1016.85 1016.81 1016.85 1016.89 1016.89 1016.85 1016.77 1016.73 1016.65 1016.57 1016.53 1016.53 1016.53 1016.49 1016.45 1016.45 1016.41 1016.37 1016.37 1016.45 1016.49 1016.57 1016.65 1016.73 1016.81 1016.85 1016.93 1016.97 1017.01 1017.01 1017.05 1017.13 1017.29 1017.41 1017.41 1017.37 1017.41 1017.45 1017.57 1017.69 1017.81 1017.97 1018.13 1018.29 1018.49 1018.61 1018.65 1018.73 1018.85 1018.97 1019.13 1019.21 1019.29 1019.33 1019.37 1019.41 1019.45 1019.49 1019.57 1019.61
1018.01 1017.85 1017.77 1017.65 1017.57 1017.45 1017.37 1017.25 1017.13 1017.13 1017.13 1017.21 1017.21 1017.17 1017.13 1017.01 1016.97 1016.89 1016.85 1016.85 1016.85 1016.77 1016.73 1016.69 1016.69 1016.61 1016.57 1016.57 1016.69 1016.73 1016.77 1016.85 1016.93 1017.01 1017.09 1017.09 1017.13 1017.17 1017.25 1017.29 1017.41 1017.49 1017.53 1017.53 1017.53 1017.57 1017.65 1017.73 1017.89 1018.01 1018.17 1018.29 1018.45 1018.57 1018.73 1018.73 1018.81 1018.93 1019.09 1019.21 1019.29 1019.41 1019.45 1019.45 1019.49 1019.57 1019.61 1019.69 1019.77
1018.21 1018.09 1017.93 1017.85 1017.73 1017.69 1017.57 1017.45 1017.41 1017.37 1017.41 1017.45 1017.45 1017.41 1017.33 1017.29 1017.21 1017.21 1017.17 1017.13 1017.01 1017.01 1016.97 1016.93 1016.85 1016.77 1016.77 1016.85 1016.89 1016.97 1017.01 1017.05 1017.13 1017.21 1017.29 1017.33 1017.41 1017.45 1017.53 1017.57 1017.61 1017.69 1017.73 1017.73 1017.73 1017.81 1017.85 1017.97 1018.13 1018.29 1018.41 1018.53 1018.65 1018.73 1018.85 1018.85 1018.97 1019.09 1019.25 1019.33 1019.41 1019.45 1019.49 1019.57 1019.61 1019.73 1019.77 1019.81 1019.89
1018.41 1018.25 1018.13 1018.05 1017.97 1017.85 1017.73 1017.65 1017.61 1017.61 1017.65 1017.69 1017.65 1017.61 1017.57 1017.53 1017.53 1017.49 1017.45 1017.33 1017.25 1017.25 1017.25 1017.25 1017.13 1017.05 1017.05 1017.09 1017.17 1017.21 1017.25 1017.29 1017.37 1017.45 1017.57 1017.61 1017.73 1017.73 1017.77 1017.81 1017.85 1017.85 1017.89 1017.93 1018.01 1018.01 1018.09 1018.17 1018.33 1018.49 1018.61 1018.73 1018.81 1018.89 1018.97 1019.05 1019.13 1019.25 1019.41 1019.45 1019.49 1019.53 1019.57 1019.65 1019.73 1019.85 1019.89 1019.93 1020.01
1018.53 1018.41 1018.29 1018.21 1018.09 1018.01 1017.89 1017.85 1017.85 1017.89 1017.89 1017.89 1017.89 1017.85 1017.85 1017.85 1017.81 1017.73 1017.65 1017.57 1017.57 1017.57 1017.57 1017.53 1017.45 1017.45 1017.41 1017.45 1017.45 1017.49 1017.53 1017.57 1017.61 1017.73 1017.77 1017.85 1017.97 1018.01 1018.01 1018.01 1018.01 1018.05 1018.13 1018.13 1018.21 1018.25 1018.29 1018.45 1018.57 1018.69 1018.81 1018.89 1018.97 1019.05 1019.13 1019.21 1019.29 1019.37 1019.53 1019.57 1019.61 1019.69 1019.73 1019.85 1019.89 1019.97 1020.01 1020.09 1020.13
1018.69 1018.57 1018.45 1018.33 1018.25 1018.13 1018.09 1018.09 1018.13 1018.13 1018.13 1018.13 1018.13 1018.13 1018.13 1018.09 1018.01 1017.97 1017.89 1017.85 1017.85 1017.81 1017.77 1017.73 1017.73 1017.73 1017.77 1017.81 1017.81 1017.81 1017.81 1017.85 1017.89 1017.93 1018.01 1018.05 1018.13 1018.13 1018.13 1018.25 1018.25 1018.29 1018.29 1018.37 1018.41 1018.41 1018.45 1018.57 1018.73 1018.77 1018.89 1019.01 1019.13 1019.17 1019.25 1019.29 1019.41 1019.49 1019.57 1019.69 1019.73 1019.81 1019.89 1020.01 1020.05 1020.13 1020.13 1020.17 1020.29
1018.81 1018.73 1018.61 1018.53 1018.45 1018.33 1018.29 1018.29 1018.33 1018.37 1018.37 1018.37 1018.37 1018.33 1018.29 1018.29 1018.21 1018.13 1018.09 1018.05 1018.01 1018.01 1018.01 1017.97 1017.93 1018.01 1018.05 1018.09 1018.09 1018.09 1018.09 1018.09 1018.09 1018.13 1018.17 1018.21 1018.29 1018.29 1018.37 1018.45 1018.49 1018.49 1018.53 1018.57 1018.61 1018.61 1018.65 1018.73 1018.85 1018.89 1019.01 1019.13 1019.25 1019.29 1019.33 1019.41 1019.53 1019.57 1019.65 1019.73 1019.85 1019.93 1020.01 1020.05 1020.13 1020.17 1020.25 1020.29 1020.45
1018.93 1018.85 1018.81 1018.73 1018.61 1018.57 1018.53 1018.53 1018.57 1018.57 1018.57 1018.57 1018.57 1018.53 1018.49 1018.45 1018.45 1018.37 1018.29 1018.29 1018.25 1018.17 1018.13 1018.13 1018.17 1018.25 1018.29 1018.29 1018.29 1018.29 1018.29 1018.33 1018.33 1018.37 1018.41 1018.45 1018.49 1018.57 1018.69 1018.73 1018.73 1018.73 1018.73 1018.85 1018.93 1018.93 1018.93 1018.97 1019.01 1019.13 1019.21 1019.29 1019.41 1019.45 1019.53 1019.57 1019.65 1019.73 1019.73 1019.85 1019.89 1020.01 1020.09 1020.13 1020.17 1020.25 1020.29 1020.41 1020.53
1019.09 1019.05 1019.01 1018.89 1018.85 1018.77 1018.77 1018.77 1018.77 1018.77 1018.81 1018.77 1018.77 1018.73 1018.69 1018.69 1018.61 1018.57 1018.49 1018.45 1018.45 1018.41 1018.37 1018.41 1018.45 1018.45 1018.45 1018.45 1018.49 1018.53 1018.53 1018.53 1018.57 1018.65 1018.73 1018.77 1018.81 1018.85 1018.89 1018.93 1018.97 1018.97 1019.01 1019.09 1019.17 1019.25 1019.25 1019.29 1019.33 1019.41 1019.45 1019.53 1019.57 1019.65 1019.73 1019.73 1019.77 1019.81 1019.85 1019.93 1019.97 1020.05 1020.13 1020.21 1020.29 1020.33 1020.41 1020.49 1020.61
1019.25 1019.17 1019.13 1019.09 1019.01 1019.01 1019.01 1019.01 1019.01 1018.97 1018.97 1018.93 1018.93 1018.85 1018.85 1018.85 1018.81 1018.77 1018.73 1018.69 1018.65 1018.65 1018.65 1018.69 1018.69 1018.65 1018.65 1018.69 1018.73 1018.77 1018.77 1018.81 1018.85 1018.93 1019.01 1019.09 1019.13 1019.13 1019.17 1019.21 1019.25 1019.29 1019.29 1019.37 1019.45 1019.53 1019.57 1019.57 1019.57 1019.61 1019.65 1019.69 1019.73 1019.77 1019.85 1019.85 1019.89 1019.97 1020.01 1020.05 1020.09 1020.13 1020.25 1020.33 1020.41 1020.45 1020.53 1020.61 1020.73
1019.41 1019.33 1019.29 1019.29 1019.21 1019.21 1019.21 1019.17 1019.13 1019.13 1019.13 1019.09 1019.05 1019.05 1019.01 1019.01 1019.01 1018.97 1018.93 1018.89 1018.85 1018.85 1018.85 1018.93 1018.89 1018.85 1018.85 1018.97 1019.01 1019.09 1019.13 1019.13 1019.17 1019.25 1019.29 1019.37 1019.41 1019.45 1019.45 1019.49 1019.57 1019.57 1019.61 1019.65 1019.69 1019.73 1019.73 1019.77 1019.77 1019.77 1019.81 1019.85 1019.89 1019.93 1019.97 1020.01 1020.09 1020.13 1020.17 1020.25 1020.29 1020.37 1020.45 1020.53 1020.57 1020.61 1020.73 1020.77 1020.85
1019.57 1019.49 1019.45 1019.45 1019.45 1019.45 1019.37 1019.33 1019.33 1019.29 1019.29 1019.25 1019.21 1019.21 1019.17 1019.13 1019.13 1019.13 1019.13 1019.09 1019.09 1019.05 1019.05 1019.13 1019.13 1019.13 1019.13 1019.25 1019.29 1019.33 1019.37 1019.41 1019.45 1019.53 1019.57 1019.61 1019.65 1019.69 1019.73 1019.77 1019.81 1019.85 1019.85 1019.85 1019.89 1019.93 1019.93 1019.97 1019.97 1020.01 1020.01 1020.05 1020.09 1020.13 1020.17 1020.21 1020.29 1020.33 1020.37 1020.45 1020.49 1020.57 1020.65 1020.73 1020.73 1020.81 1020.89 1020.93 1021.01
1019.69 1019.61 1019.57 1019.57 1019.57 1019.57 1019.53 1019.49 1019.45 1019.45 1019.45 1019.37 1019.33 1019.33 1019.33 1019.33 1019.29 1019.29 1019.29 1019.29 1019.29 1019.29 1019.29 1019.29 1019.33 1019.37 1019.45 1019.49 1019.53 1019.57 1019.57 1019.61 1019.69 1019.73 1019.81 1019.85 1019.85 1019.93 1019.93 1019.97 1020.01 1020.05 1020.05 1020.13 1020.13 1020.17 1020.21 1020.21 1020.21 1020.21 1020.25 1020.29 1020.29 1020.33 1020.41 1020.45 1020.49 1020.53 1020.57 1020.61 1020.69 1020.73 1020.81 1020.85 1020.93 1021.01 1021.01 1021.09 1021.13
1019.73 1019.73 1019.69 1019.69 1019.69 1019.65 1019.65 1019.61 1019.57 1019.57 1019.53 1019.45 1019.45 1019.45 1019.45 1019.45 1019.45 1019.45 1019.49 1019.49 1019.49 1019.49 1019.49 1019.53 1019.57 1019.61 1019.69 1019.73 1019.73 1019.73 1019.81 1019.85 1019.93 1020.01 1020.05 1020.09 1020.13 1020.13 1020.21 1020.21 1020.25 1020.29 1020.29 1020.33 1020.37 1020.41 1020.45 1020.45 1020.45 1020.45 1020.45 1020.45 1020.49 1020.53 1020.57 1020.61 1020.69 1020.73 1020.73 1020.77 1020.85 1020.89 1020.97 1021.01 1021.09 1021.13 1021.17 1021.25 1021.29
1019.85 1019.85 1019.81 1019.77 1019.77 1019.73 1019.73 1019.69 1019.65 1019.61 1019.61 1019.57 1019.57 1019.57 1019.57 1019.65 1019.65 1019.69 1019.69 1019.69 1019.69 1019.73 1019.73 1019.81 1019.85 1019.85 1019.89 1019.93 1019.97 1020.01 1020.05 1020.13 1020.17 1020.21 1020.25 1020.29 1020.33 1020.41 1020.45 1020.45 1020.45 1020.49 1020.57 1020.57 1020.57 1020.61 1020.65 1020.69 1020.69 1020.69 1020.69 1020.69 1020.73 1020.73 1020.81 1020.85 1020.89 1020.93 1020.97 1021.01 1021.01 1021.13 1021.17 1021.25 1021.29 1021.33 1021.37 1021.45 1021.45
1019.93 1019.93 1019.93 1019.89 1019.85 1019.81 1019.77 1019.77 1019.77 1019.77 1019.73 1019.73 1019.77 1019.77 1019.77 1019.81 1019.85 1019.85 1019.85 1019.85 1019.89 1019.93 1019.97 1020.05 1020.05 1020.09 1020.13 1020.17 1020.21 1020.25 1020.29 1020.37 1020.41 1020.45 1020.49 1020.57 1020.57 1020.61 1020.61 1020.65 1020.69 1020.73 1020.73 1020.81 1020.85 1020.85 1020.85 1020.85 1020.85 1020.89 1020.93 1020.97 1021.01 1021.01 1021.09 1021.13 1021.13 1021.17 1021.21 1021.25 1021.29 1021.41 1021.45 1021.49 1021.53 1021.57 1021.57 1021.61 1021.61
1020.01 1020.01 1020.01 1020.01 1019.97 1019.93 1019.89 1019.93 1019.93 1019.89 1019.93 1019.97 1019.97 1019.97 1019.97 1020.01 1020.01 1020.01 1020.05 1020.05 1020.09 1020.13 1020.17 1020.25 1020.29 1020.33 1020.37 1020.45 1020.45 1020.49 1020.53 1020.53 1020.57 1020.61 1020.65 1020.69 1020.73 1020.73 1020.77 1020.81 1020.81 1020.85 1020.85 1020.93 1020.97 1021.01 1021.01 1021.05 1021.13 1021.17 1021.21 1021.29 1021.29 1021.29 1021.33 1021.37 1021.41 1021.41 1021.45 1021.49 1021.57 1021.65 1021.73 1021.77 1021.77 1021.85 1021.85 1021.85 1021.85
1020.13 1020.09 1020.09 1020.09 1020.09 1020.09 1020.09 1020.09 1020.05 1020.09 1020.13 1020.13 1020.13 1020.13 1020.13 1020.17 1020.21 1020.25 1020.29 1020.29 1020.29 1020.33 1020.37 1020.45 1020.45 1020.53 1020.57 1020.65 1020.69 1020.73 1020.73 1020.73 1020.73 1020.73 1020.73 1020.73 1020.81 1020.81 1020.85 1020.85 1020.85 1020.85 1020.89 1020.93 1021.01 1021.05 1021.13 1021.25 1021.33 1021.45 1021.45 1021.45 1021.49 1021.53 1021.57 1021.57 1021.61 1021.65 1021.69 1021.73 1021.81 1021.85 1021.93 1022.01 1022.05 1022.09 1022.13 1022.13 1022.13
1020.25 1020.21 1020.21 1020.25 1020.21 1020.21 1020.25 1020.25 1020.25 1020.29 1020.29 1020.29 1020.29 1020.33 1020.37 1020.41 1020.41 1020.45 1020.45 1020.45 1020.45 1020.53 1020.57 1020.57 1020.61 1020.65 1020.73 1020.77 1020.81 1020.81 1020.81 1020.81 1020.81 1020.81 1020.81 1020.85 1020.85 1020.85 1020.85 1020.89 1020.93 1020.97 1021.01 1021.01 1021.09 1021.13 1021.25 1021.37 1021.49 1021.57 1021.61 1021.69 1021.69 1021.73 1021.77 1021.85 1021.85 1021.89 1021.97 1022.01 1022.09 1022.13 1022.17 1022.29 1022.29 1022.33 1022.37 1022.37 1022.29
1020.37 1020.37 1020.37 1020.41 1020.37 1020.37 1020.41 1020.45 1020.45 1020.45 1020.45 1020.45 1020.49 1020.53 1020.57 1020.57 1020.57 1020.61 1020.61 1020.61 1020.65 1020.69 1020.73 1020.73 1020.77 1020.85 1020.85 1020.85 1020.89 1020.93 1020.93 1020.93 1020.93 1020.93 1020.97 1020.97 1021.01 1021.01 1021.05 1021.13 1021.13 1021.13 1021.13 1021.13 1021.17 1021.29 1021.37 1021.45 1021.61 1021.73 1021.85 1021.85 1021.89 1021.93 1022.01 1022.09 1022.13 1022.13 1022.17 1022.25 1022.29 1022.37 1022.45 1022.49 1022.53 1022.57 1022.57 1022.53 1022.49
1020.49 1020.49 1020.49 1020.49 1020.53 1020.57 1020.57 1020.57 1020.57 1020.57 1020.57 1020.61 1020.65 1020.69 1020.69 1020.73 1020.73 1020.77 1020.77 1020.81 1020.85 1020.85 1020.89 1020.93 1020.97 1021.01 1021.01 1021.01 1021.09 1021.13 1021.13 1021.13 1021.13 1021.13 1021.13 1021.13 1021.21 1021.29 1021.29 1021.33 1021.37 1021.33 1021.29 1021.29 1021.37 1021.45 1021.53 1021.61 1021.73 1021.85 1021.97 1022.01 1022.09 1022.13 1022.21 1022.25 1022.29 1022.37 1022.45 1022.45 1022.53 1022.57 1022.65 1022.69 1022.73 1022.73 1022.73 1022.69 1022.65
1020.65 1020.61 1020.61 1020.61 1020.65 1020.69 1020.73 1020.73 1020.73 1020.73 1020.73 1020.73 1020.77 1020.81 1020.85 1020.89 1020.93 1020.97 1021.01 1021.01 1021.05 1021.09 1021.13 1021.17 1021.17 1021.17 1021.21 1021.25 1021.29 1021.29 1021.33 1021.33 1021.33 1021.33 1021.33 1021.37 1021.45 1021.49 1021.57 1021.57 1021.57 1021.49 1021.45 1021.45 1021.57 1021.61 1021.69 1021.77 1021.85 1021.97 1022.05 1022.13 1022.29 1022.33 1022.37 1022.41 1022.49 1022.57 1022.61 1022.61 1022.73 1022.73 1022.81 1022.85 1022.85 1022.89 1022.89 1022.85 1022.85
1020.77 1020.73 1020.73 1020.73 1020.73 1020.77 1020.81 1020.85 1020.85 1020.85 1020.85 1020.89 1020.93 1021.01 1021.05 1021.13 1021.13 1021.21 1021.25 1021.29 1021.29 1021.37 1021.41 1021.41 1021.41 1021.45 1021.49 1021.53 1021.57 1021.57 1021.57 1021.61 1021.61 1021.61 1021.61 1021.73 1021.73 1021.77 1021.81 1021.77 1021.73 1021.73 1021.73 1021.73 1021.73 1021.81 1021.85 1021.97 1022.01 1022.13 1022.21 1022.33 1022.45 1022.49 1022.53 1022.61 1022.65 1022.73 1022.77 1022.85 1022.89 1022.97 1023.01 1023.09 1023.13 1023.13 1023.09 1023.09 1023.01
1020.85 1020.85 1020.85 1020.85 1020.85 1020.85 1020.89 1020.93 1020.97 1021.01 1021.01 1021.05 1021.13 1021.17 1021.25 1021.29 1021.37 1021.45 1021.45 1021.53 1021.57 1021.57 1021.57 1021.61 1021.69 1021.73 1021.73 1021.77 1021.81 1021.85 1021.85 1021.85 1021.89 1021.93 1022.01 1022.01 1022.05 1022.05 1022.05 1022.01 1021.97 1021.93 1021.89 1021.89 1021.93 1022.01 1022.05 1022.13 1022.17 1022.29 1022.41 1022.49 1022.61 1022.73 1022.73 1022.81 1022.85 1022.89 1022.97 1023.05 1023.13 1023.13 1023.17 1023.25 1023.29 1023.29 1023.29 1023.25 1023.17
1020.89 1020.89 1020.89 1020.93 1020.97 1021.01 1021.01 1021.09 1021.13 1021.13 1021.13 1021.21 1021.29 1021.37 1021.45 1021.53 1021.61 1021.65 1021.69 1021.73 1021.77 1021.81 1021.85 1021.85 1021.93 1021.97 1022.01 1022.01 1022.01 1022.05 1022.13 1022.13 1022.21 1022.29 1022.29 1022.29 1022.29 1022.29 1022.29 1022.21 1022.17 1022.13 1022.13 1022.09 1022.13 1022.17 1022.25 1022.29 1022.37 1022.45 1022.57 1022.65 1022.77 1022.85 1022.93 1022.97 1023.01 1023.09 1023.13 1023.21 1023.29 1023.33 1023.33 1023.37 1023.41 1023.37 1023.37 1023.33 1023.29
1021.01 1021.01 1021.01 1021.01 1021.05 1021.13 1021.17 1021.21 1021.25 1021.29 1021.29 1021.37 1021.45 1021.53 1021.61 1021.73 1021.77 1021.81 1021.85 1021.93 1022.01 1022.05 1022.13 1022.13 1022.13 1022.21 1022.25 1022.29 1022.29 1022.33 1022.37 1022.45 1022.45 1022.49 1022.53 1022.49 1022.49 1022.45 1022.45 1022.41 1022.41 1022.33 1022.29 1022.29 1022.29 1022.33 1022.41 1022.45 1022.57 1022.61 1022.73 1022.81 1022.89 1023.01 1023.09 1023.09 1023.13 1023.21 1023.29 1023.33 1023.41 1023.45 1023.45 1023.45 1023.49 1023.49 1023.49 1023.45 1023.45
1021.09 1021.13 1021.13 1021.13 1021.17 1021.25 1021.29 1021.33 1021.37 1021.41 1021.45 1021.53 1021.61 1021.73 1021.81 1021.89 1021.97 1022.01 1022.13 1022.17 1022.25 1022.29 1022.33 1022.37 1022.45 1022.45 1022.45 1022.53 1022.57 1022.61 1022.69 1022.73 1022.73 1022.73 1022.73 1022.69 1022.65 1022.61 1022.57 1022.57 1022.57 1022.49 1022.45 1022.45 1022.49 1022.57 1022.57 1022.69 1022.73 1022.77 1022.85 1022.89 1023.05 1023.13 1023.17 1023.21 1023.29 1023.33 1023.41 1023.49 1023.53 1023.57 1023.61 1023.69 1023.69 1023.69 1023.65 1023.61 1023.57
1021.17 1021.21 1021.25 1021.25 1021.29 1021.37 1021.45 1021.45 1021.49 1021.53 1021.61 1021.73 1021.81 1021.89 1022.01 1022.09 1022.17 1022.29 1022.33 1022.41 1022.45 1022.53 1022.57 1022.65 1022.69 1022.73 1022.73 1022.81 1022.85 1022.89 1022.93 1022.93 1022.97 1022.93 1022.89 1022.85 1022.85 1022.85 1022.81 1022.73 1022.73 1022.69 1022.65 1022.69 1022.73 1022.73 1022.77 1022.85 1022.85 1022.89 1023.01 1023.13 1023.25 1023.29 1023.33 1023.41 1023.49 1023.57 1023.65 1023.69 1023.73 1023.77 1023.81 1023.81 1023.81 1023.81 1023.77 1023.73 1023.73
1021.29 1021.29 1021.37 1021.41 1021.45 1021.49 1021.53 1021.57 1021.61 1021.69 1021.77 1021.85 1022.01 1022.09 1022.17 1022.29 1022.37 1022.45 1022.49 1022.57 1022.61 1022.73 1022.85 1022.93 1022.97 1023.01 1023.05 1023.13 1023.13 1023.13 1023.17 1023.17 1023.13 1023.13 1023.13 1023.13 1023.13 1023.13 1023.09 1023.01 1023.01 1022.89 1022.85 1022.85 1022.85 1022.89 1022.89 1022.97 1023.01 1023.05 1023.17 1023.33 1023.45 1023.53 1023.57 1023.65 1023.73 1023.85 1023.89 1023.93 1023.97 1024.01 1023.97 1023.93 1023.89 1023.89 1023.85 1023.85 1023.81
1021.45 1021.45 1021.49 1021.49 1021.57 1021.61 1021.65 1021.73 1021.77 1021.85 1021.97 1022.05 1022.17 1022.29 1022.37 1022.45 1022.57 1022.61 1022.65 1022.73 1022.85 1022.97 1023.09 1023.17 1023.25 1023.29 1023.37 1023.41 1023.45 1023.45 1023.45 1023.45 1023.41 1023.41 1023.41 1023.45 1023.41 1023.41 1023.37 1023.37 1023.33 1023.17 1023.01 1023.01 1022.97 1023.01 1023.01 1023.05 1023.13 1023.21 1023.33 1023.49 1023.57 1023.69 1023.77 1023.85 1023.93 1024.01 1024.05 1024.09 1024.13 1024.13 1024.09 1024.01 1023.97 1023.93 1023.89 1023.85 1023.77
1021.57 1021.57 1021.57 1021.61 1021.73 1021.73 1021.81 1021.85 1021.89 1022.01 1022.13 1022.29 1022.33 1022.45 1022.49 1022.57 1022.73 1022.81 1022.85 1022.93 1023.09 1023.21 1023.29 1023.45 1023.53 1023.57 1023.61 1023.65 1023.61 1023.65 1023.69 1023.69 1023.65 1023.65 1023.65 1023.69 1023.65 1023.65 1023.61 1023.57 1023.53 1023.45 1023.25 1023.05 1023.01 1023.05 1023.09 1023.13 1023.17 1023.29 1023.41 1023.57 1023.73 1023.85 1023.89 1024.01 1024.05 1024.13 1024.17 1024.21 1024.25 1024.21 1024.13 1024.09 1024.01 1024.01 1023.93 1023.81 1023.61
1021.73 1021.73 1021.73 1021.77 1021.85 1021.89 1021.97 1022.01 1022.05 1022.13 1022.29 1022.37 1022.45 1022.53 1022.61 1022.73 1022.85 1022.97 1023.09 1023.17 1023.33 1023.45 1023.53 1023.65 1023.73 1023.77 1023.77 1023.77 1023.81 1023.85 1023.85 1023.85 1023.85 1023.85 1023.81 1023.85 1023.81 1023.73 1023.73 1023.73 1023.69 1023.61 1023.45 1023.13 1023.01 1023.05 1023.13 1023.13 1023.17 1023.29 1023.45 1023.69 1023.85 1023.93 1024.01 1024.05 1024.17 1024.29 1024.33 1024.33 1024.37 1024.29 1024.21 1024.13 1024.09 1024.05 1024.01 1023.85 1023.57
1021.81 1021.85 1021.85 1021.93 1021.97 1022.01 1022.05 1022.13 1022.21 1022.29 1022.37 1022.45 1022.57 1022.61 1022.73 1022.85 1022.97 1023.09 1023.25 1023.41 1023.57 1023.61 1023.73 1023.81 1023.89 1023.89 1023.89 1023.85 1023.97 1024.01 1024.01 1023.97 1024.01 1024.01 1023.97 1023.93 1023.85 1023.73 1023.73 1023.77 1023.73 1023.73 1023.53 1023.17 1023.01 1023.01 1023.05 1023.13 1023.21 1023.37 1023.57 1023.85 1023.93 1023.97 1024.01 1024.13 1024.25 1024.37 1024.45 1024.45 1024.45 1024.41 1024.33 1024.25 1024.17 1024.13 1024.09 1024.01 1023.81
1021.85 1021.93 1022.01 1022.05 1022.09 1022.13 1022.17 1022.29 1022.33 1022.41 1022.45 1022.57 1022.65 1022.73 1022.85 1022.97 1023.09 1023.25 1023.45 1023.57 1023.65 1023.73 1023.81 1023.89 1023.97 1024.01 1024.01 1023.97 1024.01 1024.05 1024.09 1024.05 1024.05 1024.09 1024.09 1024.01 1023.97 1023.85 1023.81 1023.85 1023.77 1023.73 1023.53 1023.25 1023.01 1023.01 1023.05 1023.13 1023.29 1023.41 1023.61 1023.85 1023.97 1024.01 1024.05 1024.17 1024.29 1024.45 1024.53 1024.57 1024.57 1024.53 1024.45 1024.41 1024.29 1024.25 1024.17 1024.13 1024.05
Wind_Speed
6 6 5 4 4 3 3 2 2 2 2 2 2 2 1 2 3 3 3 3 3 3 2 2 2 2 2 3 3 2 1 2 3 3 3 4 4 5 5 4 4 4 4 5 5 5 5 5 4 3 3 2 2 2 2 2 2 3 3 3 3 3 3 4 4 4 4 4 3
7 7 6 5 5 4 3 3 3 3 3 3 2 2 2 3 3 3 4 4 3 3 3 3 4 4 5 6 5 5 5 4 4 4 4 4 3 3 3 3 3 4 4 5 5 5 4 4 4 3 3 2 3 3 2 2 2 2 3 2 2 1 2 2 2 2 1 1 1
7 7 6 6 5 5 4 3 4 4 4 4 3 3 3 3 3 4 4 4 4 4 4 4 5 6 7 8 7 7 7 6 6 6 6 6 6 5 4 4 5 5 5 4 4 4 4 4 4 3 3 3 3 3 2 2 2 2 2 1 1 1 1 1 2 2 2 3 3
7 7 6 6 6 5 4 3 4 4 4 4 3 4 4 4 4 4 4 4 5 6 6 5 5 6 7 8 8 8 8 8 8 8 7 7 7 7 7 7 7 7 6 6 6 6 6 5 4 3 3 3 3 3 2 2 3 3 3 2 2 3 3 3 3 3 3 3 3
7 6 6 5 5 5 4 4 4 5 4 4 4 5 5 5 4 4 5 5 6 6 6 6 6 6 7 8 9 9 9 9 9 8 8 8 8 8 8 8 8 7 6 6 6 7 7 6 4 4 4 4 3 3 3 3 4 3 3 3 3 3 2 2 2 2 2 2 2
6 6 6 5 6 5 4 4 5 5 5 5 7 7 6 5 5 6 6 6 6 6 7 7 6 6 7 8 9 9 9 9 9 9 9 9 8 9 9 9 9 8 7 7 7 7 7 6 5 4 4 3 3 3 4 4 4 4 3 3 3 2 2 2 2 2 2 3 3
5 6 6 6 6 6 5 5 5 5 6 7 8 8 7 6 7 7 7 6 6 6 6 7 7 7 7 8 8 9 9 9 9 9 9 9 9 9 9 9 9 8 8 7 7 7 6 5 4 4 4 4 4 4 4 4 4 4 3 3 2 2 2 2 2 2 3 4 4
5 5 6 6 6 6 6 6 6 6 7 7 8 8 8 8 8 8 7 7 6 6 6 6 7 7 7 8 8 8 9 9 9 8 8 8 8 8 9 9 9 8 7 6 6 6 6 5 4 4 4 3 3 3 4 4 5 4 4 3 2 2 2 2 2 2 3 4 5
5 6 6 6 6 6 6 7 7 8 8 8 8 8 8 8 8 8 7 7 6 6 5 6 6 7 8 9 8 8 8 8 8 8 8 8 8 8 8 8 8 7 6 6 6 6 6 5 4 4 4 3 3 3 4 5 5 5 4 3 3 2 3 3 3 3 4 4 5
6 6 6 6 6 6 6 7 8 8 8 8 8 8 8 8 8 7 6 5 6 6 7 6 7 8 8 9 8 8 7 7 8 8 8 8 9 8 7 7 7 7 6 6 6 6 6 5 5 5 4 4 4 4 4 5 6 5 4 3 3 3 4 4 4 4 4 5 5
6 5 5 5 6 6 6 7 7 8 8 8 8 8 8 8 7 6 5 5 6 7 8 7 8 8 8 8 7 7 7 7 7 8 8 8 8 7 7 6 7 7 6 6 5 5 5 5 6 6 6 5 5 5 5 6 6 6 5 3 4 4 5 5 5 4 4 5 5
6 5 5 5 6 6 6 7 7 7 7 7 7 7 7 7 6 5 5 6 7 7 7 7 8 8 8 7 7 7 7 7 7 7 7 8 7 7 6 7 7 7 7 6 5 4 5 5 6 6 6 6 5 4 5 6 6 6 5 4 4 5 5 5 5 4 4 4 5
5 6 6 6 6 6 7 7 6 6 7 7 7 7 6 6 6 6 6 7 7 6 6 6 7 7 7 6 6 6 6 6 6 6 6 7 6 7 7 7 7 7 6 5 4 4 5 6 6 6 6 6 5 4 4 5 6 5 5 5 5 5 5 5 5 4 4 5 5
6 6 6 6 6 6 6 6 6 6 6 7 6 6 5 5 6 6 6 6 6 6 5 6 6 6 6 6 6 6 6 6 6 6 6 6 7 7 7 6 6 6 6 5 5 5 5 5 6 6 6 6 5 5 5 5 5 5 5 5 5 5 5 5 5 5 5 6 6
6 6 6 6 6 6 6 6 5 5 6 6 5 5 5 5 6 6 6 6 6 5 5 5 6 6 6 6 6 6 6 6 6 6 7 7 7 7 6 6 6 6 6 6 5 6 6 6 6 6 6 6 5 5 5 5 5 5 5 5 6 5 5 5 5 5 5 6 5
6 6 6 6 6 6 6 5 4 5 5 5 5 5 5 5 5 5 6 6 5 5 6 6 6 6 6 7 7 7 6 6 7 7 7 6 6 6 6 6 6 7 7 7 6 7 7 7 6 6 6 6 6 6 6 6 6 6 6 6 6 6 5 5 5 5 5 5 5
6 6 6 6 6 6 6 5 4 4 5 5 5 5 5 5 5 5 6 6 5 6 6 6 6 6 6 7 7 7 7 7 7 7 7 7 7 7 7 8 8 8 7 7 7 7 7 7 6 6 6 6 6 6 6 6 6 6 6 6 6 6 6 5 5 5 5 5 5
5 6 6 6 6 6 6 5 5 5 5 5 5 5 5 5 5 5 5 6 6 6 7 6 6 6 7 8 7 7 7 7 7 8 7 8 8 8 8 8 8 7 7 7 7 7 7 7 7 6 6 7 7 7 7 7 7 7 7 7 7 6 6 6 5 5 5 5 5
5 5 5 5 5 5 5 5 5 5 5 5 5 5 5 6 6 6 6 6 7 7 7 7 7 7 8 8 7 7 7 7 8 8 8 8 8 8 7 7 7 7 7 7 7 7 7 7 7 7 7 7 7 7 7 7 7 7 7 7 7 7 7 6 6 5 5 4 4
4 5 5 4 4 4 4 5 4 4 4 4 5 5 6 6 6 7 7 7 7 7 8 8 7 8 8 8 8 7 7 7 7 8 8 7 7 7 7 7 7 7 7 7 7 7 7 6 7 7 7 7 7 7 7 7 7 7 7 7 7 7 7 6 6 5 4 4 4
5 5 5 4 4 4 4 4 4 4 4 5 5 6 6 7 7 7 8 8 8 8 8 8 8 8 8 7 8 8 7 6 7 7 7 7 7 7 7 7 7 7 7 6 7 7 7 6 6 6 6 7 7 7 7 7 7 7 7 6 7 7 7 6 6 5 5 4 4
5 4 4 4 3 4 4 4 4 4 5 6 6 6 7 7 7 7 7 7 8 8 8 8 8 8 8 7 8 7 7 6 6 6 6 7 7 6 6 6 6 6 6 6 6 6 6 6 6 6 6 6 7 7 7 7 7 7 7 7 7 7 7 6 6 5 5 5 4
3 3 3 3 4 4 4 4 5 5 6 6 6 6 7 7 7 7 7 7 7 8 8 7 7 8 8 7 7 7 6 6 6 6 6 5 5 5 5 5 6 6 6 5 5 5 5 6 6 6 6 6 6 6 6 6 6 6 7 7 7 7 7 6 6 6 6 5 5
3 3 3 3 4 4 5 5 5 6 6 6 6 6 6 7 7 7 7 7 7 7 7 7 7 7 7 7 6 6 6 6 6 6 6 5 5 5 5 5 5 5 4 4 5 5 5 5 5 5 5 5 6 6 6 6 6 6 7 7 7 7 7 7 7 7 7 7 6
4 4 4 4 4 5 5 5 6 6 6 6 6 6 6 6 6 6 7 7 7 7 7 7 7 7 6 6 6 5 5 5 6 6 6 6 5 4 4 4 4 3 3 5 7 8 8 7 6 5 4 5 5 6 6 6 6 6 6 6 6 6 6 7 7 7 7 7 6
4 4 5 5 5 5 5 5 5 5 5 5 5 6 6 6 6 6 7 7 7 7 7 7 6 6 6 6 5 6 6 6 6 6 6 5 5 4 4 3 3 3 3 6 9 10 10 10 9 7 5 4 5 5 6 6 6 7 6 6 6 6 6 6 6 6 6 6 6
4 5 5 5 5 5 5 5 5 5 5 5 5 5 5 5 5 6 6 7 7 6 6 6 6 6 6 6 7 7 7 7 7 7 7 7 6 6 5 4 3 3 4 8 10 10 11 11 11 10 8 5 5 5 5 5 6 6 6 6 6 6 6 6 5 5 5 5 5
4 4 5 5 5 5 5 5 5 5 5 5 5 5 5 6 6 6 7 7 6 6 6 5 5 5 5 5 7 8 8 7 7 7 7 7 7 6 5 4 3 4 7 10 11 11 11 11 11 11 9 7 5 5 5 5 5 5 5 5 5 5 5 4 4 4 4 4 4
4 4 5 5 5 5 5 4 5 5 5 5 5 6 6 7 7 7 7 7 7 6 6 5 4 4 5 6 7 7 7 7 6 6 6 7 6 6 5 5 5 6 9 11 11 11 11 11 11 11 10 9 6 4 4 4 4 4 4 4 4 4 4 4 3 3 3 3 3
4 4 4 5 5 5 5 5 5 5 5 5 6 7 7 8 8 8 8 8 7 7 6 5 5 6 7 7 7 7 7 7 7 7 7 7 7 7 6 6 6 7 9 11 11 11 11 11 11 11 11 10 7 5 4 4 4 4 4 4 4 4 4 4 3 3 3 3 3
3 4 4 5 5 5 5 5 5 6 6 7 7 8 8 8 8 8 7 7 7 7 6 6 7 8 8 7 7 7 7 7 7 7 7 7 7 7 7 6 6 7 9 11 11 11 10 10 11 11 11 11 8 5 4 4 4 4 4 4 4 4 4 3 3 3 3 3 4
4 4 5 5 6 6 6 6 6 7 7 8 8 8 8 8 7 7 7 6 6 7 7 7 8 8 8 7 7 7 7 7 6 6 6 6 6 6 6 5 5 7 8 11 11 11 11 11 11 11 11 11 8 6 5 5 4 4 4 4 4 4 3 3 3 3 4 4 4
4 4 5 6 6 6 6 6 6 7 7 8 8 8 8 7 7 7 6 6 6 6 7 7 7 7 7 6 6 6 6 6 6 6 6 5 5 5 5 5 5 6 9 11 11 11 11 11 11 12 12 11 8 6 5 4 4 4 4 4 4 4 4 4 3 3 3 3 3
4 4 5 6 6 6 6 6 6 7 7 8 8 8 7 7 7 7 6 6 6 6 6 6 6 6 6 5 5 5 5 5 5 5 5 5 5 5 5 4 4 6 10 11 11 11 11 12 12 12 12 10 7 5 4 4 4 4 4 4 4 4 4 4 3 3 2 2 2
4 4 5 5 6 6 6 6 6 7 7 8 8 7 7 7 6 6 6 6 6 6 5 5 5 5 5 5 5 5 5 5 5 5 5 5 5 5 6 5 5 8 10 11 11 11 11 12 12 12 10 8 5 4 4 4 4 4 4 4 4 4 4 4 3 3 2 2 1
3 4 5 5 6 6 6 6 7 7 7 7 7 7 7 6 6 5 5 6 6 6 5 5 5 4 4 4 4 4 4 4 5 5 5 5 5 5 5 5 5 7 10 11 11 11 11 12 11 11 9 6 4 4 4 4 4 4 4 4 4 4 4 4 3 3 2 2 1
3 4 4 5 5 6 6 6 7 7 7 7 7 6 6 6 5 5 5 5 5 5 5 4 4 4 4 4 4 4 4 3 4 4 4 5 4 4 3 3 3 4 7 11 11 11 11 11 11 9 7 4 4 4 4 3 3 3 4 3 3 3 3 3 3 3 3 3 1
4 4 5 5 5 5 6 6 7 7 7 6 6 5 5 5 4 4 4 4 5 5 5 4 3 3 2 2 2 3 3 3 3 3 3 3 2 2 2 2 3 3 3 7 9 10 10 10 9 8 6 3 3 3 3 3 3 3 3 3 3 3 3 3 3 3 3 4 3
4 4 5 5 5 5 6 6 7 7 6 6 5 5 5 4 4 4 4 3 3 4 4 3 2 2 2 2 2 2 2 2 3 2 2 2 1 1 2 1 2 3 3 2 7 8 8 8 8 8 6 4 3 3 2 3 3 3 3 3 3 3 4 3 3 3 3 4 5
4 4 5 5 5 5 6 6 6 6 5 5 5 5 4 4 4 4 3 3 2 2 3 3 2 2 1 2 2 2 2 2 3 2 2 2 2 2 2 1 1 3 4 1 5 7 7 7 8 8 7 4 3 3 2 3 3 3 3 3 3 3 3 4 3 3 3 4 6
4 4 4 4 5 5 6 6 6 5 5 5 5 5 4 4 4 3 3 2 2 2 2 2 2 2 2 2 2 2 2 2 2 3 3 3 3 3 2 1 2 3 4 2 5 7 7 8 8 8 7 5 3 3 2 3 3 3 3 2 2 2 3 3 3 3 3 4 4
Wind_Direction
1 359 356 354 354 353 352 348 344 338 331 326 325 329 352 34 36 29 20 18 18 14 11 14 22 27 29 32 48 74 126 154 167 172 175 172 197 213 217 205 190 174 163 159 162 164 163 159 153 145 136 127 124 115 104 102 132 150 163 176 188 194 199 205 212 215 214 213 215
358 354 353 355 356 357 358 2 1 0 359 1 2 6 24 44 42 36 29 26 24 26 30 34 35 38 43 45 51 57 63 69 76 80 83 88 101 117 128 132 126 127 134 141 145 144 140 133 127 120 112 100 98 93 85 72 106 129 147 166 178 189 201 213 231 240 243 241 291
356 354 355 357 360 1 5 9 8 6 6 8 12 21 33 40 39 36 32 27 29 33 37 39 38 41 44 47 49 52 55 59 63 66 68 67 66 68 70 70 67 69 75 86 90 90 90 94 97 100 99 95 97 97 92 68 77 94 107 108 73 52 41 33 26 27 32 34 31
355 354 355 356 359 1 7 14 13 13 14 14 19 27 33 35 33 31 29 29 33 34 35 37 40 42 44 48 49 50 50 51 56 60 62 61 58 57 58 60 58 56 56 60 65 69 70 70 71 71 71 73 81 84 83 70 64 64 64 51 42 38 38 37 35 38 44 50 46
352 352 353 356 1 7 16 24 26 26 25 25 30 31 31 30 27 26 28 33 33 31 30 34 42 46 49 52 53 52 51 49 51 54 57 56 55 55 56 59 61 62 64 67 72 74 76 75 73 68 63 61 63 63 63 64 64 62 56 46 43 42 44 46 46 52 60 65 60
350 352 356 3 12 19 27 29 34 37 39 40 39 37 33 29 28 29 31 35 32 30 29 35 41 47 52 56 56 56 54 51 51 53 55 55 55 55 56 58 58 59 61 64 68 72 76 81 83 82 78 75 67 60 59 65 72 72 67 56 46 45 49 51 51 59 66 71 70
351 359 5 13 21 28 31 30 36 42 46 47 43 40 35 30 31 32 33 34 32 31 32 37 38 44 50 55 58 58 58 56 55 55 56 58 58 59 60 60 60 59 59 62 67 70 72 76 81 84 83 82 77 67 64 72 81 82 78 68 53 48 49 49 52 65 75 78 77
359 6 12 18 25 31 34 34 41 47 49 49 44 39 36 33 32 32 32 34 32 32 33 38 39 44 51 56 57 58 59 58 57 56 57 59 59 60 61 62 62 61 60 61 67 71 74 75 77 79 80 82 84 80 79 85 91 92 89 82 68 57 52 53 52 61 72 77 76
6 8 11 18 24 29 35 40 46 51 53 50 44 40 37 36 34 33 33 34 32 31 33 36 38 44 50 54 55 56 57 57 56 56 55 57 57 57 58 59 60 59 58 56 61 67 71 74 72 71 72 77 81 82 84 88 91 90 87 82 73 63 58 58 56 59 65 72 73
6 7 11 19 20 26 35 43 47 51 52 50 43 40 39 38 35 33 33 33 34 33 32 30 33 41 47 51 51 52 55 58 57 56 55 54 55 56 57 58 60 59 57 54 57 62 67 73 72 70 68 70 73 73 74 79 83 83 80 74 71 66 63 59 58 60 64 70 73
6 8 13 20 20 27 37 44 45 46 46 45 41 39 37 36 32 30 30 34 40 37 32 28 33 39 44 46 47 49 52 56 58 58 56 53 54 55 56 58 60 60 59 56 58 63 69 74 77 75 72 69 70 71 72 76 80 80 77 71 70 69 66 60 60 62 67 72 75
9 11 16 21 24 32 41 46 45 44 42 41 39 37 35 32 27 26 31 39 43 40 35 33 37 40 42 44 44 47 52 56 58 60 59 56 53 53 55 57 58 59 60 57 59 67 75 80 83 81 78 72 71 73 76 80 83 83 81 74 70 69 68 64 63 65 70 74 74
15 18 20 21 27 35 43 46 45 42 39 38 36 34 31 27 23 26 33 41 44 43 40 39 42 44 45 44 45 48 53 58 60 62 62 61 57 55 54 54 55 57 58 55 57 68 80 86 88 88 86 81 78 80 84 88 90 91 90 84 78 75 73 71 70 71 73 73 73
25 25 25 25 30 37 43 44 44 41 38 35 33 31 28 25 24 27 33 38 41 42 44 44 46 46 45 45 48 50 54 60 63 65 65 64 62 59 56 54 54 56 56 52 51 61 74 84 88 90 91 89 86 85 86 91 95 97 97 93 88 84 81 78 78 79 79 78 77
30 30 30 31 34 39 43 43 42 40 37 35 31 30 30 28 25 27 31 34 37 42 46 47 48 46 44 44 47 49 52 56 58 61 62 63 63 62 60 57 54 55 55 52 49 52 59 69 74 79 84 87 86 84 83 86 91 94 95 96 94 91 88 86 86 86 87 88 86
32 32 33 36 39 41 42 41 41 39 38 35 32 32 33 31 27 29 32 34 38 44 48 48 49 48 46 45 45 46 48 52 53 53 53 54 56 56 56 55 53 54 55 54 53 52 53 54 61 68 74 80 80 80 80 82 84 86 88 90 91 91 90 90 89 90 93 95 95
32 32 33 37 41 42 42 40 40 40 38 36 34 35 35 34 32 33 35 37 44 49 50 47 48 50 51 49 46 45 46 49 50 49 48 47 49 50 52 53 54 54 55 58 60 60 59 58 62 67 72 76 77 78 78 79 78 79 79 80 81 82 83 85 87 89 92 94 97
31 32 33 36 39 41 42 41 42 41 40 39 38 37 38 39 38 37 38 41 47 52 53 50 50 52 54 53 50 48 49 51 52 52 52 52 53 55 56 57 58 58 59 62 65 67 68 68 69 70 73 74 76 76 77 76 76 75 74 73 73 74 75 77 79 83 88 92 96
31 31 32 33 36 38 40 42 42 42 42 42 43 42 41 43 44 43 44 46 49 52 56 56 55 56 57 57 56 56 57 57 57 57 58 58 59 60 61 61 61 60 61 64 66 67 68 69 71 72 74 76 77 77 77 77 76 76 74 74 74 74 74 74 75 78 83 90 96
35 34 33 33 35 38 40 42 43 45 45 47 48 48 47 47 49 49 50 50 51 53 56 59 59 59 59 60 61 60 59 59 59 60 61 61 61 62 62 62 62 61 61 63 64 65 67 68 70 73 76 78 80 80 80 80 79 78 78 78 76 76 75 75 75 75 77 81 88
43 42 40 36 40 43 45 45 46 50 52 53 52 53 53 52 53 54 54 54 54 55 56 57 58 59 60 60 62 62 61 60 61 63 65 65 64 63 62 63 65 65 65 64 66 68 69 70 71 73 76 79 81 83 83 83 83 81 80 79 77 75 72 71 69 68 67 69 72
44 44 42 39 45 51 53 51 51 54 57 57 57 58 58 57 56 56 57 58 58 58 57 57 58 59 59 60 61 63 64 65 66 68 69 70 68 67 66 69 71 72 72 70 69 70 70 71 71 72 74 77 77 80 82 85 85 83 80 77 74 70 66 61 59 57 55 56 59
43 44 44 45 50 55 56 55 55 57 59 59 59 60 62 62 61 60 59 60 61 61 62 62 61 61 61 61 63 66 70 73 72 71 70 71 72 72 72 74 75 77 76 73 70 69 70 71 68 67 68 72 72 73 75 78 80 80 78 75 71 66 60 53 49 46 43 40 41
44 48 53 55 55 58 59 59 60 61 61 62 62 63 65 66 65 64 64 64 66 67 68 69 68 68 67 66 65 67 71 76 76 74 71 69 72 74 76 78 80 82 83 83 82 80 77 75 70 67 66 69 70 70 70 70 73 75 76 76 72 66 59 50 46 42 38 33 29
52 58 63 64 63 63 63 64 65 66 66 67 67 68 68 70 70 71 72 72 71 72 73 74 74 74 73 71 68 66 68 72 75 76 76 76 76 78 81 82 84 87 92 95 94 93 92 89 83 76 70 71 72 71 70 67 67 68 71 71 69 66 60 52 45 40 37 33 29
60 65 68 68 67 67 66 67 69 71 72 73 72 73 73 75 77 78 78 77 75 74 73 74 75 76 75 72 70 68 67 66 65 66 68 70 68 65 63 62 65 73 87 95 97 97 97 96 91 85 77 71 73 73 71 67 63 63 64 64 64 63 61 56 48 41 36 34 30
65 69 71 72 70 70 69 70 72 74 76 76 77 77 78 79 80 79 78 76 73 71 69 68 71 73 72 70 68 67 65 63 60 58 57 56 54 52 51 51 54 66 84 91 92 93 94 94 92 87 81 72 73 74 74 72 66 64 63 62 61 61 62 61 54 47 40 35 31
68 72 75 76 74 72 70 70 74 76 78 78 78 79 79 78 77 75 73 69 66 64 63 62 64 66 67 67 65 64 63 61 60 58 57 55 54 51 50 50 55 73 84 87 86 88 89 92 92 90 87 80 75 74 75 76 72 68 66 65 65 64 64 63 59 54 46 38 32
71 74 77 79 77 74 70 68 71 73 75 76 76 76 76 74 72 69 67 65 63 62 61 62 62 63 64 64 63 61 59 57 55 53 52 51 51 50 49 50 58 72 81 83 84 85 87 89 91 92 91 88 82 76 75 77 77 75 72 69 67 66 64 62 57 52 45 37 29
73 76 78 80 78 74 71 67 69 70 72 74 75 76 75 73 70 69 67 66 65 64 64 64 65 65 64 63 62 60 57 52 48 47 47 50 53 53 51 51 55 67 76 80 82 83 85 87 89 92 93 91 86 81 77 78 78 77 75 71 66 62 58 54 46 38 30 22 19
77 78 80 81 78 74 72 72 74 76 77 78 78 77 76 75 73 71 70 70 68 67 66 66 66 66 65 63 62 61 58 54 51 50 51 56 58 57 54 50 54 66 75 79 81 83 85 88 91 93 94 92 86 79 73 73 74 73 71 68 61 54 50 44 38 31 26 20 18
81 82 83 82 80 78 77 77 80 82 83 83 82 80 79 77 75 74 72 71 70 68 67 66 68 68 67 65 64 62 60 58 57 58 60 63 63 61 58 54 57 68 77 81 83 85 87 90 92 94 94 92 85 78 72 74 72 71 68 64 57 49 43 38 36 30 27 25 24
83 86 87 87 86 84 83 83 85 86 86 85 84 82 80 78 76 72 70 69 68 67 66 67 68 68 68 67 66 64 61 60 60 62 64 65 65 64 62 58 63 73 78 81 84 86 89 91 93 94 94 91 86 79 74 77 75 71 66 60 50 42 36 32 31 28 26 24 24
87 90 91 91 91 90 88 87 87 87 87 86 84 82 80 78 75 73 71 70 68 66 64 64 64 64 65 64 65 65 65 63 58 56 56 57 60 63 63 60 66 75 79 82 84 87 90 92 94 95 94 91 84 76 71 73 70 63 56 47 38 28 21 17 17 16 16 16 22
90 95 96 96 95 94 93 91 90 89 88 87 84 82 79 76 75 75 76 76 74 69 64 61 59 59 58 57 59 63 65 63 58 55 54 54 58 62 64 61 68 78 82 85 87 89 92 94 95 94 92 84 73 63 60 62 57 49 41 34 24 13 5 359 358 355 354 357 19
88 96 99 99 97 97 96 95 92 90 88 87 86 83 80 76 75 75 77 80 78 75 70 66 63 62 60 58 57 58 58 58 60 59 57 53 56 59 59 52 59 77 86 89 91 92 94 95 96 94 89 75 59 50 51 53 49 40 32 26 15 1 351 346 343 339 336 333 339
82 92 97 99 97 97 96 95 93 90 88 88 88 87 85 81 77 74 76 79 80 80 79 75 72 70 69 66 61 53 46 46 57 60 58 51 54 56 52 35 27 60 82 93 94 96 97 99 100 98 92 74 60 53 52 51 45 37 28 19 1 345 335 332 332 333 331 323 304
81 87 93 96 97 97 96 95 94 94 93 92 92 91 90 86 81 76 75 77 86 92 93 88 84 80 77 75 68 53 37 28 43 53 55 44 46 56 57 34 355 1 48 94 99 101 102 104 106 106 103 87 76 68 63 58 46 36 24 10 349 334 326 325 330 333 332 324 327
85 88 92 95 98 99 99 98 99 99 100 99 95 93 90 89 88 84 79 75 88 99 105 104 101 96 91 87 77 58 33 16 24 36 43 27 9 40 65 58 337 323 332 91 106 108 110 111 113 113 109 96 93 87 81 74 57 39 23 8 353 339 332 330 335 337 334 328 341
89 90 93 97 101 102 103 102 103 104 105 104 100 97 95 96 98 94 86 77 83 95 105 112 113 111 104 95 85 70 46 15 8 12 13 354 339 2 32 59 317 308 310 1 105 108 111 112 115 115 111 99 98 97 92 87 68 46 26 11 1 349 339 333 336 338 336 331 337
94 95 97 100 104 106 107 108 108 108 107 106 106 107 107 107 104 98 90 85 87 93 101 108 108 101 89 83 79 73 60 27 0 351 348 342 339 352 3 1 320 311 314 345 84 95 101 104 112 115 115 109 104 100 95 88 72 53 31 7 4 358 349 337 337 337 337 332 331